Regional Weather Roundup
Issued by NWS Kansas City/Pleasant Hill, MO

Home | Current Version | Previous Version | Graphics & Text | Print | Product List | Glossary Off
Versions: 1 2 3 4 5 6 7 8 9 10 11 12 13 14 15 16 17 18 19 20 21 22 23 24 25 26 27 28 29 30 31 32 33 34 35 36 37 38 39 40 41 42 43 44 45 46 47 48 49 50

000
ASUS43 KEAX 302110
RWREAX

WEATHER ROUNDUP FOR EASTERN KANSAS AND NORTHWEST MISSOURI
NATIONAL WEATHER SERVICE KANSAS CITY/PLEASANT HILL MO
400 PM CDT THU JUL 30 2015

KSZ040-057-103>105-MOZ028-029-037-043-302200-
...KANSAS CITY METROPOLITAN AREA...

CITY           SKY/WX    TMP DP  RH WIND       PRES   REMARKS
K.C. INTL      PTSUNNY   85  66  53 SW6       30.18F
K.C. DOWNTOWN  PTSUNNY   88  52  29 S8        30.16F
LEES SUMMIT    CLOUDY    86  56  35 S5        30.18F
OLATHE - IXD   PTSUNNY   85  51  31 SE7       30.19F
OLATHE - OJC   PTSUNNY   84  57  39 VRB3      30.18F
LAWRENCE       MOSUNNY   86  58  38 SE3       30.17F

$$

MOZ001>008-011>017-020>025-030>033-038>040-044>046-053-054-302200-
...NORTHERN AND CENTRAL MISSOURI...

CITY           SKY/WX    TMP DP  RH WIND       PRES   REMARKS
ST. JOSEPH     MOSUNNY   85  63  47 S7        30.17F
MOSBY          MOCLDY    88  55  33 SW5       30.17F
WARRENSBURG    CLOUDY    86  59  39 SW5       30.17F
WHITEMAN AFB   PTSUNNY   87  58  38 W5        30.17F
CLINTON        CLOUDY    86  61  42 CALM      30.17F
SEDALIA        CLOUDY    89  56  32 E5        30.18F
WARSAW         NOT AVBL
CHILLICOTHE      N/A     88  64  44 W5        30.17F
KIRKSVILLE     SUNNY     87  61  41 W8        30.17F

$$

MOZ041-047>049-056>058-063>065-088>090-097-302200-
...EASTERN AND SOUTHERN MISSOURI...

CITY           SKY/WX    TMP DP  RH WIND       PRES   REMARKS
ST. LOUIS INTL PTSUNNY   91  59  33 NW5       30.14F HX  90
SPIRIT OF STL  MOSUNNY   89  62  40 W7        30.13F
COLUMBIA       PTSUNNY   86  63  45 W8        30.17F
JEFFERSON CITY PTSUNNY   86  56  35 NE3       30.15F
ROLLA          CLOUDY    85  56  37 E5        30.17F
OSAGE BEACH    CLOUDY    84  64  51 CALM      30.17F
SPRINGFIELD    PTSUNNY   88  51  28 NE9       30.16F
BRANSON        MOSUNNY   86  59  39 NE6       30.18F
JOPLIN         PTSUNNY   86  62  44 E7        30.16F
WEST PLAINS    MOSUNNY   85  58  39 NE7       30.17F

$$

IAZ060-094-KSZ022-034>040-054-083-096-NEZ052-066-093-302200-
...KANSAS...SOUTHEAST NEBRASKA AND IOWA...

CITY           SKY/WX    TMP DP  RH WIND       PRES   REMARKS
TOPEKA         PTSUNNY   85  60  42 SE5       30.17F
MANHATTAN      PTSUNNY   87  63  44 SE6       30.17F
EMPORIA        MOSUNNY   79  65  62 VRB5      30.17F
CHANUTE        CLOUDY    82  70  66 NW6       30.16F
WICHITA        PTSUNNY   83  69  62 E5        30.17F
OMAHA          MOSUNNY   90  57  32 W10       30.15F
LINCOLN        SUNNY     91  52  26 SW10      30.17F
FALLS CITY     SUNNY     87  63  44 SW5       30.16F
LAMONI         SUNNY     86  62  44 W10       30.17F
DES MOINES     MOSUNNY   89  54  30 W13       30.13F

$$




USA.gov is the U.S. government's official web portal to all federal, state and local government web resources and services.